Location: Newark
(35.2672°N, 80.7344°W)
Time: 11:36:20
(UTC+00:00)

Transit 2A Rocket - Pass Details

Date: 03 February 2020
Orbit: 591 x 912 km, 66.7° (Epoch: 23 February)

Event Time Altitude Azimuth Distance (km) Brightness Sun altitude
Rises 09:31:36 0° 258° (WSW) 2,823 - -34.8°
Reaches altitude 10° 09:35:26 10° 293° (WNW) 1,922 - -34.1°
Maximum altitude 09:36:49 11° 312° (NW) 1,841 - -33.8°
Drops below altitude 10° 09:38:12 10° 331° (NNW) 1,935 - -33.5°
Sets 09:42:08 0° 6° (N) 2,877 - -32.7°
